This is the latest recevied weather packets stored in our database for station/object EA1FBN. If no packets are shown the sender has not sent any weather packets the latest 10 day(s).
| Time | Temp. | Humidity | Pressure | Rain* | Wind** | Luminosity | Snow |
|---|---|---|---|---|---|---|---|
| 1777210054 | 22.22° C | 53% | 1017.7 hPa | 0 mm | - | - | - |
| 1777209754 | 22.22° C | 53% | 1017.8 hPa | 0 mm | - | - | - |
| 1777209454 | 22.22° C | 51% | 1017.8 hPa | 0 mm | - | - | - |
| 1777209154 | 22.22° C | 51% | 1017.9 hPa | 0 mm | - | - | - |
| 1777208854 | 21.67° C | 53% | 1018 hPa | 0 mm | - | - | - |
| 1777208554 | 21.67° C | 53% | 1018 hPa | 0 mm | - | - | - |
| 1777208254 | 21.67° C | 54% | 1018.1 hPa | 0 mm | - | - | - |
| 1777207954 | 21.67° C | 55% | 1018.1 hPa | 0 mm | - | - | - |
| 1777207654 | 22.22° C | 54% | 1018.1 hPa | 0 mm | - | - | - |
| 1777207354 | 21.67° C | 52% | 1018.2 hPa | 0 mm | - | - | - |
| 1777207054 | 21.67° C | 55% | 1018.3 hPa | 0 mm | - | - | - |
| 1777206754 | 21.67° C | 55% | 1018.3 hPa | 0 mm | - | - | - |
| 1777206454 | 21.11° C | 55% | 1018.4 hPa | 0 mm | - | - | - |
| 1777206154 | 21.11° C | 56% | 1018.4 hPa | 0 mm | - | - | - |
| 1777205854 | 21.11° C | 55% | 1018.5 hPa | 0 mm | - | - | - |
| 1777205554 | 21.11° C | 57% | 1018.5 hPa | 0 mm | - | - | - |
| 1777205254 | 21.11° C | 57% | 1018.7 hPa | 0 mm | - | - | - |
| 1777204954 | 21.11° C | 57% | 1018.7 hPa | 0 mm | - | - | - |
| 1777204654 | 21.11° C | 58% | 1018.7 hPa | 0 mm | - | - | - |
| 1777204354 | 20.56° C | 58% | 1018.8 hPa | 0 mm | - | - | - |
| 1777204054 | 20.56° C | 59% | 1018.9 hPa | 0 mm | - | - | - |
| 1777203754 | 20.56° C | 58% | 1018.9 hPa | 0 mm | - | - | - |
| 1777203454 | 20.56° C | 59% | 1019 hPa | 0 mm | - | - | - |
| 1777203154 | 21.11° C | 61% | 1019 hPa | 0 mm | - | - | - |
| 1777202854 | 20.56° C | 59% | 1019 hPa | 0 mm | - | - | - |
* Rain latest hour (hover to see other rain measurements)
** Current wind speed in m/s (hover to see current wind gust speed)